Location: Rancho Penasquitos
(32.9595°N, 117.1153°W)
Time: 01:31:50
(UTC+00:00)

Cosmos 1633 Rocket - Pass Details

Date: 29 June 2022
Orbit: 607 x 622 km, 82.5° (Epoch: 07 August)

Event Time Altitude Azimuth Distance (km) Brightness Sun altitude
Rises 12:06:42 0° 177° (S) 2,865 6.2 -7.3°
Reaches altitude 10° 12:08:56 10° 174° (S) 1,962 5.4 -6.9°
Maximum altitude 12:13:13 62° 94° (E) 692 3.6 -6.2°
Drops below altitude 10° 12:17:30 10° 14° (NNE) 1,967 6.4 -5.4°
Sets 12:19:44 0° 11° (N) 2,873 7.2 -5.0°
